Location: Gazon
(48.1318°N, 1.2708°W)
Time: 22:42:09
(UTC+00:00)

Cosmos 1655 Rocket - Pass Details

Date: 18 September 2020
Orbit: 971 x 1005 km, 82.9° (Epoch: 25 October)

Event Time Altitude Azimuth Distance (km) Brightness Sun altitude
Rises 21:04:12 0° 353° (N) 3,685 7.7 -27.6°
Reaches altitude 10° 21:06:45 10° 356° (N) 2,737 6.8 -28.0°
Enters shadow 21:12:32 61° 57° (ENE) 1,104 4.1 -28.7°
